Weather in Fuzhou

China     27°59′21″N   116°21′28″E
temp.,
°C
wind,
m/s
gust,
m/s
humid.,
%
clouds,
%
prec.,
mm/h
press.,
hPa
HPBL,
m
19 january, tue
tue1923:00+6ene11490 0.0 102522
02:00+5ene11500 0.0 102422
05:00+4e12530 0.0 102422
08:00+4se11560 0.0 102523
11:00+10se23400 0.0 1024433
14:00+15se13300 0.0 1021845
17:00+15ne23370 0.0 1020116
20:00+10ene23530 0.0 102223
20 january, wed
wed2023:00+9e22620 0.0 102222
02:00+8ese22610 0.0 102223
05:00+7ese23680 0.0 102148
08:00+8ese11700 0.0 102235
11:00+14sse12510 0.0 1022377
14:00+18sw11420 0.0 1019602
17:00+18nw22470 0.0 101873
20:00+14ne23610 0.0 102037
21 january, thu
thu2123:00+13ne12710 0.0 102023
02:00+11nne22780 0.0 102025
05:00+10ne22840 0.0 101923
08:00+11nne12831 0.0 102039
11:00+16nne22610 0.0 1020481
14:00+19nne33507 0.0 1018795
17:00+18n465483 0.0 1017395
20:00+14n596888 0.0 1018344
22 january, fri
fri2223:00+13n387288 0.0 1019372
02:00+13n377886 0.1 1018343
05:00+11nnw377832 0.0 1018246
08:00+11nw387937 0.0 1020447
11:00+14n567457 0.0 1019612
14:00+14nnw567278 0.0 1016656
17:00+12nnw577788 0.0 1015460
20:00+11nnw479094 1.3 1017437
23 january, sat
sat2323:00+11n3692100 3.3 1017369
02:00+11n369199 3.6 1017415
05:00+10nnw2489100 0.1 1017356
08:00+10nw2390100 0.2 1019272
11:00+13n347596 0.0 1020620
14:00+14n346893 0.0 1018860
17:00+14ne4469100 0.0 1017750
20:00+11nnw237971 0.0 102042